Regional Weather Roundup
Issued by NWS New Orleans/Baton Rouge, LA

Home | Current Version | Previous Version | Text Only | Print | Product List | Glossary Off
Versions: 1 2 3 4 5 6 7 8 9 10 11 12 13 14 15 16 17 18 19 20 21 22 23 24 25 26 27 28 29 30 31 32 33 34 35 36 37 38 39 40 41 42 43 44 45 46 47 48 49 50

974
ASUS44 KLIX 250905
RWRLIX
NEW ORLEANS REGIONAL WEATHER ROUNDUP
NATIONAL WEATHER SERVICE NEW ORLEANS LA
400 AM CDT SAT OCT 25 2014

NOTE: "FAIR" INDICATES FEW OR NO CLOUDS BELOW 12,000 FEET WITH NO
      SIGNIFICANT WEATHER AND/OR OBSTRUCTIONS TO VISIBILITY.
      SKY/WX - SKY CONDITION AND SIGNIFICANT WEATHER.
      TMP - AIR TEMPERATURE.     DP    - DEWPOINT TEMPERATURE.
      RH  - RELATIVE HUMIDITY.   PRES  - PRESSURE.
      HI  - HEAT INDEX.          WCI   - WIND CHILL INDEX.

*  THESE STATIONS ARE NOT NWS OR FAA STATIONS AND ARE NOT UNDER
   NWS QUALITY CONTROL.

LAZ038-040-048-061>063-065>067-069-251000-
SOUTHEAST LOUISIANA

CITY           SKY/WX    TMP DP  RH WIND       PRES   REMARKS
N.O. AUDUBON     N/A     61  55  81 MISG        N/A
N.O. INTL ARPT CLEAR     61  52  72 N10       30.09S
N.O. LAKEFRONT CLEAR     67  53  61 NE16      30.09S
N.O. DOWNTOWN*   N/A     64  48  55 N6        30.09S
SLIDELL        CLEAR     46  44  93 N3        30.08F
BATON ROUGE    CLEAR     48  45  89 CALM      30.11S
BOOTHVILLE     CLEAR     68  57  68 N8        30.07S
BELLE CHASSE   CLEAR     50  47  89 CALM      30.08F
BOGALUSA*        N/A     46  43  90 CALM      30.12S
NEW ROADS*       N/A     47  46  97 CALM      30.11F
GONZALES*        N/A     49  49 100 CALM      30.11R
HAMMOND*       CLEAR     46  45  93 NW3       30.12S
HOUMA*         CLEAR     54  51  89 N3        30.09S
PORT FOURCHON* SUNNY     66  57  72 N7        30.11S

$$

MSZ070-080>082-251000-
SOUTHERN MISSISSIPPI

CITY           SKY/WX    TMP DP  RH WIND       PRES   REMARKS
MCCOMB         CLEAR     50  45  83 N5        30.11S
GULFPORT       CLEAR     50  46  86 CALM      30.08S
BILOXI         CLEAR     56  47  73 N7        30.07F
PASCAGOULA     CLEAR     43  41  93 CALM      30.08S

$$

COASTAL OBSERVATIONS
LAKE AND NEARSHORE STATIONS

STATION/POSITION TIME  TEMP    WIND        PRES    WAVE
                       AIR SEA DIR/SP/G            HT/PER
                 (UTC) (F)     (DEG/KT/KT) (MB)    (FT/S)
PASCAGOULA       0900   56     360/  9/ 10 1017.6
WAVELAND YACHT   0900   60     360/  9/ 11 1017.8
GRAND ISLE       0900   68 71   30/ 12/ 16 1018.7
SOUTHWEST PASS   0900   71 80              1018.1
NEW CANAL        0900   67 69   30/ 15/ 17 1019.0
SHELL BEACH      0900   67 66   20/ 15/ 17 1018.4

OFFSHORE STATIONS

STATION/POSITION TIME  TEMP    WIND        PRES    WAVE
                       AIR SEA DIR/SP/G            HT/PER
                 (UTC) (F)     (DEG/KT/KT) (MB)    (FT/S)
64 S DAUPHIN ISL 0847   74 78   20/ 16/ 19 1017.7    3/ 4

$$




USA.gov is the U.S. government's official web portal to all federal, state and local government web resources and services.